Current Conditions
Scattered
Clouds



Pressure
1010.92 (mb) - 29.85 (inHG)
Visibility

10.0 (km) - 6.2 (miles)
Temperature
10  °C
Temperature
8  °C
Dewpoint
88  %
 Humidity
Wind Speed
8.0  m/s
18  mph
29  km/h
16  kts
Wind Direction
N
45°
E
90°
135°
S
180°
225°
W
270°
315°
 250°

West South
West
Airport Data
ENAL
Ă…lesund Airport, Vigra
Metar :ENAL 051450Z 25016KT 9999 SCT015 BKN020 10/08 Q1011
Tue 5th July 16:50 pm
Raw Metar Info
Raw METAR is the most common format in the world for the transmission of observational weather data. It is highly standardized through the International Civil Aviation Organization (ICAO), which allows it to be understood throughout most of the world.
API Info
Data Provided by
https://www.checkwx.com/weather/ENAL

Aviation Weather providing METAR, TAF, AIRMET, SIGMET and OUTLOOK Weather Reports
© Info
CSS/SVG/PHP scripts were developed by weather34.com for use in the weather34 template © 2015-2022

Guide Info provided by Metar-Wikipedia